Philadelphia, PA

10:58 AM EDT on July 22, 2017 (GMT -0400)
Philadelphia International

Weather History for KPHL - November, 2012

Change the Weather History Date:

Friday, November 2, 2012

  Actual Average Record
Temperature  
Mean Temperature 48 °F 52 °F  
Max Temperature 51 °F 61 °F 81 °F (1950)
Min Temperature 44 °F 43 °F 27 °F (1976)
Degree Days  
Heating Degree Days 17 13  
Month to date heating degree days 33 26  
Since 1 July heating degree days 243 319  
Cooling Degree Days 0 0  
Month to date cooling degree days 0 0  
Year to date cooling degree days 1603 1300  
Moisture  
Dew Point 34 °F    
Average Humidity 58    
Maximum Humidity 66    
Minimum Humidity 50    
Precipitation  
Precipitation T in 0.10 in 1.65 in (1956)
Month to date precipitation T 0.20  
Year to date precipitation 30.47 35.18  
Snow  
Snow 0.00 in 0.00 in 0.00 in ()
Month to date snowfall 0.0 0.0  
Since 1 July snowfall 0.0 0.0  
Since 1 September snowfall 0.0 0.0  
Snow Depth 0.00 in    
Sea Level Pressure  
Sea Level Pressure 29.73 in    
Wind  
Wind Speed 13 mph (West)    
Max Wind Speed 24 mph    
Max Gust Speed 32 mph    
Visibility 10 miles    
Events Rain    
T = Trace of Precipitation, MM = Missing Value Source: NWS Daily Summary

Daily Weather History Graph

Daily Weather History Graph

Search for Another Location

Airport or City:

Trip Planner

Search our weather history database for the weather conditions in past years. The results will help you decide how hot, cold, wet, or windy it might be!

Date:

Astronomy

Nov. 02, 2012 Rise Set
Actual Time 7:31 AM EDT 5:57 PM EDT
Civil Twilight 7:03 AM EDT 6:25 PM EDT
Nautical Twilight 6:31 AM EDT 6:57 PM EDT
Astronomical Twilight 5:59 AM EDT 7:28 PM EDT
Moon 8:42 PM EDT (11/2) 10:49 AM EDT (11/2)
Length of Visible Light 11h 21m
Length of Day
10h 25m
Waning Gibbous, 87% of the Moon is Illuminated
Nov 2
Waning Gibbous
Nov 6
Last Quarter
Nov 13
New
Nov 20
First Quarter
Nov 28
Full

Hourly Weather History & Observations

Time (EDT) Temp. Windchill Dew Point Humidity Pressure Visibility Wind Dir Wind Speed Gust Speed Precip Events Conditions
12:54 AM 48.0 °F - 37.0 °F 66% 29.69 in 10.0 mi WSW 12.7 mph - N/A   Overcast
1:54 AM 48.0 °F - 37.0 °F 66% 29.69 in 10.0 mi West 12.7 mph - N/A   Overcast
2:54 AM 48.0 °F - 37.0 °F 66% 29.70 in 10.0 mi West 12.7 mph - N/A   Overcast
3:54 AM 48.0 °F - 36.0 °F 63% 29.69 in 10.0 mi West 11.5 mph - N/A   Overcast
4:54 AM 48.0 °F - 36.0 °F 63% 29.69 in 10.0 mi West 11.5 mph - N/A   Overcast
5:54 AM 46.0 °F 40.2 °F 35.1 °F 66% 29.69 in 10.0 mi West 12.7 mph - N/A   Overcast
6:54 AM 46.0 °F 41.4 °F 34.0 °F 63% 29.70 in 10.0 mi West 9.2 mph - N/A   Mostly Cloudy
7:54 AM 45.0 °F 40.1 °F 33.1 °F 63% 29.71 in 10.0 mi West 9.2 mph - N/A   Mostly Cloudy
8:54 AM 45.0 °F 39.3 °F 33.1 °F 63% 29.73 in 10.0 mi WSW 11.5 mph - N/A   Overcast
9:54 AM 46.0 °F 41.0 °F 33.1 °F 61% 29.73 in 10.0 mi West 10.4 mph - N/A   Overcast
10:54 AM 48.0 °F - 33.1 °F 56% 29.73 in 10.0 mi WNW 12.7 mph - N/A   Mostly Cloudy
11:54 AM 50.0 °F - 33.1 °F 52% 29.72 in 10.0 mi WNW 16.1 mph - N/A   Mostly Cloudy
12:54 PM 50.0 °F - 32.0 °F 50% 29.71 in 10.0 mi West 15.0 mph - N/A   Overcast
1:54 PM 50.0 °F - 32.0 °F 50% 29.70 in 10.0 mi West 17.3 mph 21.9 mph N/A   Mostly Cloudy
2:54 PM 50.0 °F - 32.0 °F 50% 29.70 in 10.0 mi WNW 17.3 mph 24.2 mph N/A   Mostly Cloudy
3:54 PM 50.0 °F - 33.1 °F 52% 29.72 in 10.0 mi West 13.8 mph - N/A   Overcast
4:54 PM 48.9 °F - 35.1 °F 59% 29.73 in 10.0 mi WNW 12.7 mph 17.3 mph 0.00 in   Overcast
5:54 PM 50.0 °F - 33.1 °F 52% 29.75 in 10.0 mi West 9.2 mph - N/A   Overcast
6:54 PM 48.9 °F - 33.1 °F 54% 29.78 in 10.0 mi NW 10.4 mph - N/A   Overcast
7:54 PM 46.9 °F - 35.1 °F 63% 29.82 in 10.0 mi NW 21.9 mph 28.8 mph 0.00 in Rain Light Rain
8:54 PM 46.0 °F 40.6 °F 35.1 °F 66% 29.83 in 10.0 mi WNW 11.5 mph 18.4 mph 0.00 in   Overcast
9:54 PM 46.9 °F - 33.1 °F 59% 29.84 in 10.0 mi WNW 10.4 mph - N/A   Overcast
11:54 PM 45.0 °F 40.1 °F 32.0 °F 60% 29.86 in 10.0 mi WNW 9.2 mph - N/A   Scattered Clouds